{"data":{"norad_id":57534,"epoch":"2026-09-20T04:39:31.130784Z","epoch_age_seconds":154072,"freshness":"FRESH","line1":"1 57534U 23115P   26263.19411031  .00001169  00000+0  51979-4 0  9996","line2":"2 57534  43.0055 190.4374 0001261 250.4136 109.6579 15.27582248175107","mean_motion":15.27582248,"eccentricity":0.0001261,"inclination_deg":43.0055,"raan_deg":190.4374,"arg_perigee_deg":250.4136,"mean_anomaly_deg":109.6579,"bstar":5.1979e-5,"rev_number":17510,"period_min":94.266609990089,"perigee_km":482.1771700093,"apogee_km":483.90755944509,"semimajor_km":6861.1793647272,"source":"CELESTRAK","updated_at":"2026-09-21T09:00:33.639496Z"}}